Location: Berlin
(38.3226°N, 75.2177°W)
Time: 22:37:57
(UTC+00:00)

SKYMED 2 - Pass Details

Date: 26 October 2020
Orbit: 621 x 623 km, 97.9° (Epoch: 25 November)

Event Time Altitude Azimuth Distance (km) Brightness Sun altitude
Rises 10:01:00 0° 158° (SSE) 2,889 7.3 -16.3°
Reaches altitude 10° 10:03:11 10° 155° (SSE) 1,987 6.5 -15.9°
Maximum altitude 10:07:27 62° 75° (ENE) 706 4.1 -15.1°
Drops below altitude 10° 10:11:45 10° 355° (N) 2,001 6.1 -14.2°
Sets 10:13:58 0° 352° (N) 2,912 6.9 -13.8°
